Regional Weather Roundup
Issued by NWS Kansas City/Pleasant Hill, MO

Home | Current Version | Previous Version | Graphics & Text | Print | Product List | Glossary Off
Versions: 1 2 3 4 5 6 7 8 9 10 11 12 13 14 15 16 17 18 19 20 21 22 23 24 25 26 27

000
ASUS43 KEAX 210110
RWREAX

WEATHER ROUNDUP FOR EASTERN KANSAS AND NORTHWEST MISSOURI
NATIONAL WEATHER SERVICE KANSAS CITY/PLEASANT HILL MO
800 PM CDT SUN AUG 20 2017

KSZ040-057-103>105-MOZ028-029-037-043-210200-
...KANSAS CITY METROPOLITAN AREA...

CITY           SKY/WX    TMP DP  RH WIND       PRES   REMARKS
K.C. INTL      MOCLDY    82  74  76 SE9       29.96F
K.C. DOWNTOWN  CLEAR     87  74  64 SE9       29.95S HX  95
LEES SUMMIT    PTCLDY    83  76  79 SE8       29.98S HX  91
OLATHE - IXD   PTCLDY    83  76  79 E6        29.98R HX  91
OLATHE - OJC   CLOUDY    83  77  82 SE8       29.98R HX  92
LAWRENCE       PTCLDY    83  77  82 E6        29.94S HX  92

$$

MOZ001>008-011>017-020>025-030>033-038>040-044>046-053-054-210200-
...NORTHERN AND CENTRAL MISSOURI...

CITY           SKY/WX    TMP DP  RH WIND       PRES   REMARKS
ST. JOSEPH     PTCLDY    82  73  74 S7        29.93F
MOSBY          CLEAR     82  72  69 SE6       29.96S
WARRENSBURG    MOCLDY    77  66  69 E8        30.00R
WHITEMAN AFB   CLOUDY    76  67  74 S7        30.00R
CLINTON        CLOUDY    73  68  83 SE8       30.02S
SEDALIA        CLOUDY    79  66  64 S6        30.01S
WARSAW         NOT AVBL
CHILLICOTHE      N/A     78  72  81 NE8       29.99R
KIRKSVILLE     CLOUDY    74  67  78 SW3       30.01R

$$

MOZ041-047>049-056>058-063>065-088>090-097-210200-
...EASTERN AND SOUTHERN MISSOURI...

CITY           SKY/WX    TMP DP  RH WIND       PRES   REMARKS
ST. LOUIS INTL CLOUDY    88  72  58 S8        29.99F HX  94
SPIRIT OF STL  CLOUDY    84  74  71 SW10      29.95F HX  91
COLUMBIA       CLOUDY    81  75  82 S7        30.01R
JEFFERSON CITY CLOUDY    83  76  79 S5        29.99R HX  91
ROLLA          CLOUDY    79  73  82 S7        30.05R
OSAGE BEACH    CLOUDY    78  75  90 S3        30.03R
SPRINGFIELD    CLOUDY    74  69  85 N14       30.08R
BRANSON        MOCLDY    81  70  69 SE9       30.07R
JOPLIN         PTCLDY    86  76  71 S5        29.99R HX  96
WEST PLAINS    CLOUDY    80  71  74 S3        30.09R

$$

IAZ060-094-KSZ022-034>040-054-083-096-NEZ052-066-093-210200-
...KANSAS...SOUTHEAST NEBRASKA AND IOWA...

CITY           SKY/WX    TMP DP  RH WIND       PRES   REMARKS
TOPEKA         PTCLDY    84  77  79 E8        29.93S HX  94
MANHATTAN      CLOUDY    88  74  63 S10       29.89S HX  96
EMPORIA        MOCLDY    85  74  69 S10       29.94S HX  92
CHANUTE        CLEAR     86  75  69 S6        29.97R HX  95
WICHITA        PTCLDY    89  68  49 S10       29.93R HX  93
OMAHA          PTCLDY    80  66  62 E8        29.94S
LINCOLN        CLEAR     82  72  71 SE10      29.92S
FALLS CITY     PTCLDY    81  71  71 S10       29.92F
LAMONI         CLOUDY    70  66  87 E6        29.99S
DES MOINES     PTCLDY    77  65  66 CALM      29.96S

$$





USA.gov is the U.S. government's official web portal to all federal, state and local government web resources and services.